When you browse on this site, cookies collect data to enhance your experience and personalize the content and advertising you see.
Visit our Privacy Policy to learn more. By continuing to use the site, you agree to this use of cookies and data.

Hourly Weather Zapatoca

Today, 5 July, Sunday

Time Temperature Precipitation Wind Pressure Humidity
00:00 +14°C° 0.6 mm 0 mps 614 mmHg 89%
01:00 +14°C° 0.6 mm 0 mps 614 mmHg 90%
02:00 +14°C° 0.7 mm 0 mps 614 mmHg 91%
03:00 +15°C° 0.7 mm 1 mps 613 mmHg 91%
04:00 +14°C° 0.7 mm 1 mps 613 mmHg 92%
05:00 +15°C° 0.2 mm 1 mps 614 mmHg 91%
06:00 +15°C° 0.2 mm 1 mps 614 mmHg 90%
07:00 +15°C° 0.2 mm 0 mps 615 mmHg 89%
08:00 +18°C° 0.4 mm 1 mps 615 mmHg 86%
09:00 +19°C° 0.4 mm 1 mps 616 mmHg 83%
10:00 +20°C° 0.4 mm 1 mps 616 mmHg 80%
11:00 +21°C° 0.4 mm 1 mps 616 mmHg 78%
12:00 +21°C° 0.4 mm 2 mps 616 mmHg 75%
13:00 +21°C° 0.4 mm 2 mps 615 mmHg 73%
14:00 +21°C° 0.5 mm 2 mps 615 mmHg 75%
15:00 +21°C° 0.5 mm 2 mps 614 mmHg 77%
16:00 +20°C° 0.5 mm 2 mps 613 mmHg 79%
17:00 +20°C° 1.3 mm 1 mps 613 mmHg 84%
18:00 +19°C° 1.3 mm 1 mps 613 mmHg 88%
19:00 +16°C° 1.3 mm 1 mps 613 mmHg 93%
20:00 +16°C° 0.7 mm 1 mps 614 mmHg 92%
21:00 +16°C° 0.7 mm 1 mps 614 mmHg 90%
22:00 +16°C° 0.7 mm 1 mps 614 mmHg 89%
23:00 +15°C° 0.5 mm 1 mps 614 mmHg 89%

Tomorrow, 6 July, Monday

Time Temperature Precipitation Wind Pressure Humidity
00:00 +15°C° 0.5 mm 1 mps 614 mmHg 90%
01:00 +15°C° 0.5 mm 1 mps 614 mmHg 90%
02:00 +14°C° 0.4 mm 1 mps 614 mmHg 90%
03:00 +14°C° 0.4 mm 1 mps 613 mmHg 90%
04:00 +14°C° 0.4 mm 1 mps 613 mmHg 90%
05:00 +15°C° 0.1 mm 1 mps 614 mmHg 89%
06:00 +15°C° 0.1 mm 1 mps 614 mmHg 88%
07:00 +15°C° 0.1 mm 1 mps 615 mmHg 87%
08:00 +18°C° 0.1 mm 1 mps 615 mmHg 83%
09:00 +19°C° 0.1 mm 1 mps 616 mmHg 78%
10:00 +21°C° 0.1 mm 1 mps 616 mmHg 74%
11:00 +21°C° 0.2 mm 1 mps 616 mmHg 73%
12:00 +21°C° 0.2 mm 2 mps 616 mmHg 72%
13:00 +21°C° 0.2 mm 2 mps 615 mmHg 72%
14:00 +21°C° 0.3 mm 2 mps 615 mmHg 73%
15:00 +21°C° 0.3 mm 2 mps 614 mmHg 74%
16:00 +21°C° 0.3 mm 2 mps 614 mmHg 75%
17:00 +21°C° 1.2 mm 1 mps 614 mmHg 80%
18:00 +19°C° 1.2 mm 1 mps 614 mmHg 86%
19:00 +18°C° 1.2 mm 1 mps 614 mmHg 91%
20:00 +18°C° 1.5 mm 1 mps 614 mmHg 91%
21:00 +16°C° 1.5 mm 1 mps 615 mmHg 90%
22:00 +16°C° 1.5 mm 1 mps 615 mmHg 90%
23:00 +16°C° 0.8 mm 1 mps 615 mmHg 91%

Day after tomorrow, 7 July, Tuesday

Time Temperature Precipitation Wind Pressure Humidity
00:00 +14°C° 0.8 mm 0 mps 614 mmHg 91%
01:00 +14°C° 0.8 mm 0 mps 614 mmHg 92%
02:00 +14°C° 0.6 mm 0 mps 614 mmHg 93%
03:00 +14°C° 0.6 mm 0 mps 613 mmHg 93%
04:00 +13°C° 0.6 mm 0 mps 613 mmHg 94%
05:00 +14°C° 0.1 mm 0 mps 614 mmHg 93%
06:00 +14°C° 0.1 mm 0 mps 614 mmHg 92%
07:00 +15°C° 0.1 mm 0 mps 614 mmHg 90%
08:00 +18°C° 0.3 mm 1 mps 615 mmHg 87%
09:00 +19°C° 0.3 mm 1 mps 615 mmHg 83%
10:00 +21°C° 0.3 mm 1 mps 616 mmHg 79%
11:00 +21°C° 0.5 mm 1 mps 615 mmHg 78%
12:00 +21°C° 0.5 mm 1 mps 615 mmHg 78%
13:00 +21°C° 0.5 mm 2 mps 615 mmHg 77%
14:00 +22°C° 0.9 mm 1 mps 615 mmHg 77%
15:00 +21°C° 0.9 mm 1 mps 614 mmHg 78%
16:00 +21°C° 0.9 mm 1 mps 614 mmHg 78%
17:00 +20°C° 1.7 mm 1 mps 614 mmHg 83%
18:00 +19°C° 1.7 mm 1 mps 614 mmHg 87%
19:00 +18°C° 1.7 mm 1 mps 614 mmHg 92%
20:00 +16°C° 0.8 mm 1 mps 614 mmHg 92%
21:00 +16°C° 0.8 mm 1 mps 614 mmHg 92%
22:00 +16°C° 0.8 mm 1 mps 614 mmHg 92%
23:00 +14°C° 0.8 mm 0 mps 614 mmHg 93%

8 July, Wednesday

Time Temperature Precipitation Wind Pressure Humidity
00:00 +14°C° 0.8 mm 0 mps 614 mmHg 94%
01:00 +14°C° 0.8 mm 0 mps 613 mmHg 95%
02:00 +14°C° 0.2 mm 0 mps 613 mmHg 96%
03:00 +14°C° 0.2 mm 0 mps 613 mmHg 96%
04:00 +13°C° 0.2 mm 0 mps 613 mmHg 97%
05:00 +14°C° 0 mm 0 mps 613 mmHg 96%
06:00 +14°C° 0 mm 0 mps 614 mmHg 95%
07:00 +14°C° 0 mm 0 mps 614 mmHg 94%
08:00 +16°C° 0.2 mm 0 mps 615 mmHg 89%
09:00 +19°C° 0.2 mm 1 mps 615 mmHg 83%
10:00 +20°C° 0.2 mm 1 mps 616 mmHg 77%
11:00 +21°C° 0.6 mm 1 mps 615 mmHg 77%
12:00 +20°C° 0.6 mm 2 mps 615 mmHg 77%
13:00 +20°C° 0.6 mm 2 mps 614 mmHg 77%
14:00 +21°C° 0.3 mm 2 mps 614 mmHg 76%
15:00 +21°C° 0.3 mm 2 mps 614 mmHg 76%
16:00 +22°C° 0.3 mm 1 mps 613 mmHg 75%
17:00 +20°C° 1.5 mm 1 mps 613 mmHg 80%
18:00 +19°C° 1.5 mm 1 mps 613 mmHg 86%
19:00 +18°C° 1.5 mm 1 mps 613 mmHg 91%
20:00 +16°C° 2.6 mm 1 mps 613 mmHg 93%
21:00 +16°C° 2.6 mm 1 mps 614 mmHg 95%
22:00 +15°C° 2.6 mm 1 mps 614 mmHg 96%
23:00 +15°C° 0.8 mm 1 mps 614 mmHg 96%

9 July, Thursday

Time Temperature Precipitation Wind Pressure Humidity
00:00 +15°C° 0.8 mm 1 mps 614 mmHg 95%
01:00 +15°C° 0.8 mm 1 mps 613 mmHg 94%
02:00 +14°C° 0.2 mm 0 mps 613 mmHg 94%
03:00 +13°C° 0.2 mm 0 mps 613 mmHg 94%
04:00 +13°C° 0.2 mm 0 mps 613 mmHg 94%
05:00 +14°C° 0.2 mm 0 mps 613 mmHg 93%
06:00 +14°C° 0.2 mm 0 mps 614 mmHg 92%
07:00 +14°C° 0.2 mm 0 mps 614 mmHg 92%
08:00 +16°C° 0.3 mm 0 mps 615 mmHg 86%
09:00 +19°C° 0.3 mm 1 mps 616 mmHg 80%
10:00 +21°C° 0.3 mm 1 mps 616 mmHg 74%
11:00 +22°C° 0.3 mm 1 mps 616 mmHg 74%
12:00 +21°C° 0.3 mm 2 mps 615 mmHg 73%
13:00 +23°C° 0.3 mm 2 mps 615 mmHg 72%
14:00 +21°C° 0.8 mm 2 mps 614 mmHg 74%
15:00 +21°C° 0.8 mm 2 mps 614 mmHg 75%
16:00 +22°C° 0.8 mm 1 mps 613 mmHg 77%
17:00 +20°C° 1.7 mm 1 mps 613 mmHg 81%
18:00 +19°C° 1.7 mm 1 mps 613 mmHg 85%
19:00 +18°C° 1.7 mm 1 mps 613 mmHg 89%
20:00 +16°C° 0.8 mm 1 mps 614 mmHg 88%
21:00 +16°C° 0.8 mm 1 mps 614 mmHg 87%
22:00 +16°C° 0.8 mm 1 mps 615 mmHg 87%
23:00 +16°C° 1.2 mm 1 mps 614 mmHg 88%

10 July, Friday

Time Temperature Precipitation Wind Pressure Humidity
00:00 +15°C° 1.2 mm 1 mps 614 mmHg 88%
01:00 +15°C° 1.2 mm 1 mps 614 mmHg 89%
02:00 +14°C° 1.3 mm 1 mps 614 mmHg 90%
03:00 +14°C° 1.3 mm 1 mps 613 mmHg 90%
04:00 +14°C° 1.3 mm 1 mps 613 mmHg 91%
05:00 +14°C° 0.2 mm 1 mps 614 mmHg 91%
06:00 +15°C° 0.2 mm 1 mps 614 mmHg 90%
07:00 +15°C° 0.2 mm 1 mps 615 mmHg 89%
08:00 +18°C° 0.1 mm 1 mps 615 mmHg 83%
09:00 +19°C° 0.1 mm 1 mps 616 mmHg 77%
10:00 +21°C° 0.1 mm 1 mps 616 mmHg 70%
11:00 +22°C° 0.2 mm 1 mps 616 mmHg 69%
12:00 +22°C° 0.2 mm 1 mps 616 mmHg 69%
13:00 +23°C° 0.2 mm 2 mps 615 mmHg 68%
14:00 +23°C° 0.5 mm 2 mps 615 mmHg 70%
15:00 +21°C° 0.5 mm 2 mps 614 mmHg 73%
16:00 +21°C° 0.5 mm 2 mps 614 mmHg 75%
17:00 +21°C° 1.1 mm 1 mps 613 mmHg 80%
18:00 +19°C° 1.1 mm 1 mps 613 mmHg 85%
19:00 +18°C° 1.1 mm 1 mps 613 mmHg 90%
20:00 +16°C° 0.4 mm 1 mps 614 mmHg 89%
21:00 +16°C° 0.4 mm 1 mps 614 mmHg 88%
22:00 +15°C° 0.4 mm 1 mps 614 mmHg 87%
23:00 +15°C° 0.2 mm 1 mps 614 mmHg 88%
Show more